When you browse on this site, cookies collect data to enhance your experience and personalize the content and advertising you see.
Visit our Privacy Policy to learn more. By continuing to use the site, you agree to this use of cookies and data.
  • Em Portugal
  • Lista de países
  • Para 7 dias
  • Temperatura da água
  • Mapa do tempo
  • Widgets de tempo
  • user-avatar
    Iniciar Sessão

    Previsão horária em Prutz

    Hoje, 1 Junho, Segunda-feira

    Tempo Temperatura Precipitação Vento Pressão Humidade
    00:00 +4°C° 0 mm 1 m/s 633 mmHg 91%
    01:00 +4°C° 0 mm 1 m/s 633 mmHg 90%
    02:00 +4°C° 0 mm 1 m/s 633 mmHg 88%
    03:00 +4°C° 0 mm 1 m/s 633 mmHg 87%
    04:00 +4°C° 0 mm 1 m/s 633 mmHg 85%
    05:00 +6°C° 0 mm 1 m/s 634 mmHg 78%
    06:00 +8°C° 0 mm 1 m/s 634 mmHg 70%
    07:00 +11°C° 0 mm 1 m/s 635 mmHg 62%
    08:00 +12°C° 0 mm 1 m/s 636 mmHg 58%
    09:00 +14°C° 0 mm 1 m/s 636 mmHg 53%
    10:00 +15°C° 0 mm 2 m/s 636 mmHg 49%
    11:00 +16°C° 0 mm 2 m/s 637 mmHg 47%
    12:00 +17°C° 0 mm 2 m/s 637 mmHg 45%
    13:00 +18°C° 0 mm 2 m/s 637 mmHg 43%
    14:00 +18°C° 0 mm 2 m/s 637 mmHg 44%
    15:00 +18°C° 0 mm 3 m/s 637 mmHg 46%
    16:00 +18°C° 0 mm 3 m/s 636 mmHg 47%
    17:00 +16°C° 0.1 mm 2 m/s 636 mmHg 57%
    18:00 +15°C° 0.1 mm 2 m/s 636 mmHg 67%
    19:00 +13°C° 0.1 mm 2 m/s 635 mmHg 77%
    20:00 +11°C° 0.1 mm 1 m/s 635 mmHg 83%
    21:00 +9°C° 0.1 mm 1 m/s 634 mmHg 89%
    22:00 +7°C° 0.1 mm 1 m/s 633 mmHg 95%
    23:00 +6°C° 0 mm 1 m/s 633 mmHg 95%

    Amanhã, 2 Junho, Terça-feira

    Tempo Temperatura Precipitação Vento Pressão Humidade
    00:00 +5°C° 0 mm 0 m/s 633 mmHg 94%
    01:00 +5°C° 0 mm 0 m/s 633 mmHg 94%
    02:00 +4°C° 0 mm 0 m/s 633 mmHg 93%
    03:00 +5°C° 0 mm 1 m/s 632 mmHg 91%
    04:00 +5°C° 0 mm 1 m/s 632 mmHg 90%
    05:00 +7°C° 0 mm 1 m/s 633 mmHg 84%
    06:00 +10°C° 0 mm 1 m/s 634 mmHg 78%
    07:00 +12°C° 0 mm 1 m/s 635 mmHg 72%
    08:00 +13°C° 0 mm 1 m/s 635 mmHg 64%
    09:00 +15°C° 0 mm 2 m/s 635 mmHg 56%
    10:00 +16°C° 0 mm 2 m/s 636 mmHg 47%
    11:00 +17°C° 0 mm 2 m/s 635 mmHg 45%
    12:00 +17°C° 0 mm 2 m/s 635 mmHg 43%
    13:00 +18°C° 0 mm 3 m/s 635 mmHg 41%
    14:00 +18°C° 0.3 mm 3 m/s 635 mmHg 44%
    15:00 +17°C° 0.3 mm 3 m/s 634 mmHg 47%
    16:00 +17°C° 0.3 mm 3 m/s 634 mmHg 50%
    17:00 +16°C° 0.4 mm 2 m/s 633 mmHg 58%
    18:00 +14°C° 0.4 mm 2 m/s 633 mmHg 66%
    19:00 +13°C° 0.4 mm 2 m/s 632 mmHg 73%
    20:00 +11°C° 0.1 mm 1 m/s 632 mmHg 78%
    21:00 +9°C° 0.1 mm 1 m/s 631 mmHg 83%
    22:00 +6°C° 0.1 mm 0 m/s 631 mmHg 88%
    23:00 +7°C° 0 mm 1 m/s 630 mmHg 87%

    Depois de amanhã, 3 Junho, Quarta-feira

    Tempo Temperatura Precipitação Vento Pressão Humidade
    00:00 +6°C° 0 mm 1 m/s 630 mmHg 87%
    01:00 +6°C° 0 mm 1 m/s 630 mmHg 86%
    02:00 +6°C° 0 mm 1 m/s 629 mmHg 85%
    03:00 +6°C° 0 mm 1 m/s 629 mmHg 83%
    04:00 +6°C° 0 mm 1 m/s 629 mmHg 82%
    05:00 +8°C° 0 mm 1 m/s 629 mmHg 76%
    06:00 +10°C° 0 mm 1 m/s 630 mmHg 70%
    07:00 +12°C° 0 mm 1 m/s 630 mmHg 64%
    08:00 +14°C° 0 mm 1 m/s 630 mmHg 56%
    09:00 +16°C° 0 mm 1 m/s 631 mmHg 47%
    10:00 +19°C° 0 mm 1 m/s 631 mmHg 39%
    11:00 +19°C° 0 mm 1 m/s 631 mmHg 37%
    12:00 +20°C° 0 mm 1 m/s 630 mmHg 35%
    13:00 +20°C° 0 mm 1 m/s 630 mmHg 33%
    14:00 +20°C° 0.1 mm 1 m/s 630 mmHg 36%
    15:00 +19°C° 0.1 mm 2 m/s 629 mmHg 39%
    16:00 +18°C° 0.1 mm 2 m/s 629 mmHg 42%
    17:00 +18°C° 0.4 mm 1 m/s 628 mmHg 54%
    18:00 +15°C° 0.4 mm 1 m/s 627 mmHg 66%
    19:00 +14°C° 0.4 mm 1 m/s 626 mmHg 77%
    20:00 +13°C° 0.5 mm 1 m/s 626 mmHg 82%
    21:00 +11°C° 0.5 mm 1 m/s 626 mmHg 86%
    22:00 +10°C° 0.5 mm 1 m/s 626 mmHg 90%
    23:00 +10°C° 0.2 mm 1 m/s 626 mmHg 91%

    4 Junho, Quinta-feira

    Tempo Temperatura Precipitação Vento Pressão Humidade
    00:00 +10°C° 0.2 mm 1 m/s 625 mmHg 92%
    01:00 +10°C° 0.2 mm 1 m/s 625 mmHg 93%
    02:00 +9°C° 0.1 mm 1 m/s 625 mmHg 93%
    03:00 +9°C° 0.1 mm 1 m/s 624 mmHg 93%
    04:00 +9°C° 0.1 mm 1 m/s 624 mmHg 94%
    05:00 +9°C° 0.6 mm 1 m/s 623 mmHg 93%
    06:00 +9°C° 0.6 mm 1 m/s 623 mmHg 93%
    07:00 +10°C° 0.6 mm 1 m/s 623 mmHg 93%
    08:00 +10°C° 0.6 mm 1 m/s 623 mmHg 92%
    09:00 +10°C° 0.6 mm 1 m/s 623 mmHg 91%
    10:00 +11°C° 0.6 mm 1 m/s 623 mmHg 90%
    11:00 +11°C° 0.3 mm 1 m/s 623 mmHg 89%
    12:00 +11°C° 0.3 mm 1 m/s 622 mmHg 89%
    13:00 +11°C° 0.3 mm 1 m/s 622 mmHg 88%
    14:00 +10°C° 0.5 mm 2 m/s 622 mmHg 88%
    15:00 +10°C° 0.5 mm 2 m/s 622 mmHg 89%
    16:00 +12°C° 0.5 mm 2 m/s 622 mmHg 89%
    17:00 +9°C° 2.9 mm 2 m/s 621 mmHg 92%
    18:00 +8°C° 2.9 mm 2 m/s 621 mmHg 95%
    19:00 +8°C° 2.9 mm 1 m/s 621 mmHg 98%
    20:00 +7°C° 2.2 mm 1 m/s 621 mmHg 98%
    21:00 +7°C° 2.2 mm 1 m/s 620 mmHg 98%
    22:00 +6°C° 2.2 mm 1 m/s 620 mmHg 98%
    23:00 +6°C° 2.4 mm 1 m/s 620 mmHg 98%

    5 Junho, Sexta-feira

    Tempo Temperatura Precipitação Vento Pressão Humidade
    00:00 +6°C° 2.4 mm 1 m/s 619 mmHg 98%
    01:00 +5°C° 2.4 mm 1 m/s 619 mmHg 98%
    02:00 +5°C° 2 mm 1 m/s 619 mmHg 98%
    03:00 +5°C° 2 mm 1 m/s 619 mmHg 98%
    04:00 +5°C° 2 mm 1 m/s 619 mmHg 98%
    05:00 +4°C° 1.6 mm 2 m/s 619 mmHg 98%
    06:00 +4°C° 1.6 mm 2 m/s 619 mmHg 99%
    07:00 +4°C° 1.6 mm 2 m/s 620 mmHg 99%
    08:00 +4°C° 1.2 mm 2 m/s 620 mmHg 99%
    09:00 +4°C° 1.2 mm 2 m/s 620 mmHg 99%
    10:00 +3°C° 1.2 mm 2 m/s 621 mmHg 99%
    11:00 +3°C° 0.8 mm 2 m/s 621 mmHg 98%
    12:00 +3°C° 0.8 mm 2 m/s 621 mmHg 98%
    13:00 +3°C° 0.8 mm 2 m/s 621 mmHg 97%
    14:00 +3°C° 0.5 mm 2 m/s 622 mmHg 96%
    15:00 +4°C° 0.5 mm 2 m/s 622 mmHg 94%
    16:00 +4°C° 0.5 mm 2 m/s 622 mmHg 92%
    17:00 +4°C° 0.2 mm 2 m/s 622 mmHg 93%
    18:00 +3°C° 0.2 mm 2 m/s 623 mmHg 93%
    19:00 +3°C° 0.2 mm 2 m/s 623 mmHg 93%
    20:00 +2°C° 0.1 mm 2 m/s 623 mmHg 94%
    21:00 +2°C° 0.1 mm 1 m/s 624 mmHg 94%
    22:00 +1°C° 0.1 mm 1 m/s 624 mmHg 95%
    23:00 +1°C° 0.4 mm 1 m/s 625 mmHg 95%

    6 Junho, Sábado

    Tempo Temperatura Precipitação Vento Pressão Humidade
    00:00 +1°C° 0.4 mm 1 m/s 625 mmHg 96%
    01:00 +1°C° 0.4 mm 1 m/s 625 mmHg 96%
    02:00 -1°C° 0 mm 2 m/s 625 mmHg 95%
    03:00 -2°C° 0 mm 2 m/s 625 mmHg 94%
    04:00 -2°C° 0 mm 2 m/s 626 mmHg 93%
    05:00 +1°C° 0 mm 2 m/s 626 mmHg 90%
    06:00 +2°C° 0 mm 2 m/s 627 mmHg 87%
    07:00 +5°C° 0 mm 1 m/s 628 mmHg 84%
    08:00 +7°C° 0 mm 1 m/s 628 mmHg 82%
    09:00 +8°C° 0 mm 1 m/s 629 mmHg 80%
    10:00 +10°C° 0 mm 1 m/s 629 mmHg 78%
    11:00 +9°C° 0 mm 2 m/s 629 mmHg 76%
    12:00 +10°C° 0 mm 2 m/s 629 mmHg 74%
    13:00 +12°C° 0 mm 2 m/s 630 mmHg 73%
    14:00 +13°C° 0 mm 2 m/s 629 mmHg 72%
    15:00 +13°C° 0 mm 2 m/s 629 mmHg 71%
    16:00 +13°C° 0 mm 2 m/s 629 mmHg 70%
    17:00 +12°C° 0 mm 2 m/s 629 mmHg 75%
    18:00 +12°C° 0 mm 2 m/s 629 mmHg 81%
    19:00 +10°C° 0 mm 2 m/s 629 mmHg 86%
    20:00 +8°C° 0 mm 2 m/s 629 mmHg 88%
    21:00 +7°C° 0 mm 2 m/s 629 mmHg 90%
    22:00 +6°C° 0 mm 2 m/s 629 mmHg 91%
    23:00 +6°C° 0 mm 2 m/s 628 mmHg 91%
    Mostrar mais